Lid_Strength_Index
2 2 3 4 4 4 4 3 1 0 1 1 2 3 4 2 3 3 4 2 2 3 2 2 2 2 2 2 2 2 2 2 2 2 2 2 2 2 2 2 2 1 1
3 3 4 4 4 5 5 4 4 1 0 3 4 4 5 4 3 4 4 4 2 3 3 2 2 2 2 2 2 2 2 2 2 2 2 2 2 2 1 1 1 1 1
4 4 5 5 5 6 6 5 2 1 2 2 4 4 4 5 6 4 5 6 5 2 3 3 3 2 2 2 2 2 2 2 2 2 2 2 2 2 2 2 2 2 2
6 6 6 6 6 6 5 4 3 3 3 4 5 6 7 7 8 7 7 6 6 4 3 2 3 2 2 2 2 1 1 2 2 2 2 2 2 2 2 2 2 2 2
6 6 6 6 6 6 6 5 4 4 4 5 5 6 8 9 8 7 7 7 6 6 5 2 2 2 2 2 2 1 1 1 2 2 2 2 2 3 3 3 3 2 2
6 6 6 6 6 6 7 7 8 7 7 7 4 5 7 8 8 8 7 5 6 6 6 5 5 5 1 2 2 2 1 2 2 2 2 3 3 3 3 3 3 3 3
7 7 7 7 7 6 6 7 7 8 8 8 6 6 6 7 7 7 7 6 6 6 6 6 6 6 5 2 2 2 2 2 3 3 3 3 3 3 3 4 4 4 3
8 7 8 8 8 8 7 8 8 9 8 8 8 7 7 6 6 6 6 6 7 6 5 5 5 5 6 5 5 4 3 3 3 3 4 4 4 4 4 4 4 4 3
7 7 7 8 8 8 9 9 8 8 9 9 8 9 9 9 7 5 7 7 7 6 6 5 5 5 6 6 6 6 5 5 5 4 4 4 4 4 4 4 4 3 3
9 8 8 8 8 8 8 8 8 8 9 9 8 7 8 8 10 9 7 7 7 6 6 6 6 6 6 6 6 5 5 6 6 5 4 4 4 4 4 4 4 3 3
9 8 8 8 8 8 8 8 8 9 8 7 7 8 8 8 8 9 11 9 8 7 6 6 7 7 6 7 7 6 5 5 6 5 5 5 4 4 4 4 3 3 2
9 8 8 8 8 8 8 8 8 7 7 6 7 7 8 9 9 9 10 10 10 9 7 7 7 7 7 7 6 6 5 6 5 5 5 5 5 4 4 3 3 2 2
9 8 8 9 8 8 8 7 7 6 6 7 7 7 7 7 7 8 9 10 11 9 9 8 8 8 7 8 7 6 6 6 5 6 5 5 5 5 4 4 3 3 2
9 8 9 8 8 8 8 7 7 7 7 7 8 8 7 7 7 8 9 10 11 10 10 10 9 8 8 8 7 6 8 6 6 6 5 5 5 5 4 4 3 3 3
7 8 8 8 8 8 7 7 7 8 7 7 7 8 8 7 7 8 8 8 10 12 12 11 11 9 8 8 7 8 8 6 6 6 6 5 5 4 4 4 4 4 4
7 8 8 8 8 8 7 7 7 7 7 7 7 8 8 8 8 8 8 8 9 11 13 11 10 10 9 8 7 9 9 7 7 7 6 5 4 4 4 4 4 4 5
7 7 7 8 8 8 7 8 8 7 7 8 8 8 8 8 9 9 9 9 10 10 12 11 10 10 10 10 10 10 9 9 9 7 6 5 5 4 4 5 5 5 5
7 7 7 7 7 6 7 8 8 7 8 8 8 8 9 8 10 10 10 11 11 11 12 13 12 11 11 11 11 11 10 9 9 7 6 5 5 4 4 5 5 5 5
7 7 7 7 7 7 7 7 7 7 8 8 8 9 9 10 11 11 11 11 11 10 11 12 13 12 12 10 11 11 11 11 8 7 6 5 5 4 5 5 5 4 4
7 7 7 6 6 6 7 7 7 8 8 8 8 8 9 10 11 11 11 12 11 12 12 13 13 13 11 11 11 12 12 10 10 8 7 6 6 4 5 5 4 4 5
7 7 6 6 6 7 7 7 7 8 9 9 8 7 8 9 8 10 11 12 12 13 13 13 13 13 12 12 12 11 11 10 10 10 8 8 8 7 5 5 4 4 5
6 6 6 6 7 8 9 9 8 9 8 9 9 9 9 8 9 9 10 10 11 13 14 14 13 13 13 12 11 11 11 11 12 9 8 11 9 9 6 6 4 4 5
7 7 7 7 9 10 10 10 10 9 9 9 10 9 8 9 10 11 11 10 10 10 11 13 12 12 12 11 11 11 11 10 10 9 9 14 10 10 7 5 4 5 5
7 7 7 7 10 10 10 10 11 10 9 9 9 9 10 12 12 12 12 11 11 11 11 10 11 11 10 10 10 10 10 9 10 10 9 14 10 11 8 6 5 5 5
7 7 6 7 9 11 10 10 11 11 9 9 9 9 10 12 11 11 12 11 13 13 10 10 10 9 10 9 9 9 11 11 13 13 11 13 9 12 12 9 8 5 5
6 6 6 7 9 10 10 10 11 10 10 10 11 11 11 12 11 11 13 13 14 14 12 11 11 10 10 10 9 9 9 12 11 14 9 12 9 11 14 10 10 6 6